{"data":{"norad_id":49089,"intl_designator":"2021-075Q","name":"ONEWEB-0300","alt_names":[],"object_type":"PAYLOAD","status":"ACTIVE","operator":null,"country":"UK","launch_date":"2021-08-21","launch_site_code":"TYMSC","launch_vehicle":null,"mission":null,"orbit_class":"UNKNOWN","rcs_meters":null,"size_class":null,"mass_kg":null,"dimensions":null,"purposes":["comms"],"wikipedia_slug":null,"has_3d_model":false,"image_url":null,"decayed_at":null,"tle_current":{"epoch":"2026-05-25T01:56:11.831136Z","epoch_age_seconds":75047,"freshness":"FRESH","line1":"1 49089U 21075Q   26145.08069249 -.00000243  00000+0 -71113-3 0  9997","line2":"2 49089  87.8960 355.2513 0002114  80.9017 279.2351 13.12443958232171","mean_motion":13.12443958,"eccentricity":0.0002114,"inclination_deg":87.896,"raan_deg":355.2513,"arg_perigee_deg":80.9017,"mean_anomaly_deg":279.2351,"bstar":-0.00071113,"rev_number":23217,"period_min":109.71897056804,"perigee_km":1212.1146781817,"apogee_km":1215.3245151508,"semimajor_km":7591.8565966662,"source":"CELESTRAK","updated_at":"2026-05-25T13:38:22.483574Z"}}}